Weather History for Dewar Lakes, NU

Change the Weather History Date:

Thursday, October 4, 2012

  Actual Average Record
Temperature  
Mean Temperature 16 °F -  
Max Temperature 19 °F 20 °F 28 °F (2004)
Min Temperature 12 °F 15 °F 6 °F (2013)
Degree Days  
Heating Degree Days 50    
Moisture  
Dew Point -    
Average Humidity    
Maximum Humidity    
Minimum Humidity    
Precipitation  
Precipitation 0.00 in - - ()
Sea Level Pressure  
Sea Level Pressure 29.80 in    
Wind  
Wind Speed 12 mph ()    
Max Wind Speed 20 mph    
Max Gust Speed -    
Visibility 3.8 miles    
Events Snow    
Averages and records for this station are not official NWS values.
T = Trace of Precipitation, MM = Missing Value Source: Averaged Metar Reports

Daily Weather History Graph

Daily Weather History Graph

Search for Another Location

Airport:

Trip Planner

Search our weather history database for the weather conditions in past years. The results will help you decide how hot, cold, wet, or windy it might be!

Date:

Astronomy

Oct. 04, 2012 Rise Set
Actual Time 7:11 AM EDT 5:53 PM EDT
Civil Twilight 6:14 AM EDT 6:50 PM EDT
Nautical Twilight 5:06 AM EDT 7:57 PM EDT
Astronomical Twilight 3:51 AM EDT 9:11 PM EDT
Moon 5:19 PM EDT (10/4) 2:31 PM EDT (10/4)
Length of Visible Light 12h 35m
Length of Day
10h 41m
Waning Gibbous, 82% of the Moon is Illuminated
Oct 4
Waning Gibbous
Oct 8
Last Quarter
Oct 15
New
Oct 21
First Quarter
Oct 29
Full

Hourly Weather History & Observations

Time (EDT) Temp. Windchill Dew Point Humidity Pressure Visibility Wind Dir Wind Speed Gust Speed Precip Events Conditions
12:00 AM 15.8 °F 1.4 °F - N/A% 29.81 in 1.5 mi East 13.8 mph - N/A   Overcast
12:08 AM 15.8 °F 2.7 °F - N/A% 29.67 in 1.4 mi East 11.5 mph - N/A   Overcast
12:16 AM 17.6 °F 4.3 °F - N/A% 29.67 in 1.2 mi East 12.7 mph - N/A   Overcast
12:22 AM 15.8 °F 0.9 °F - N/A% 29.67 in 1.0 mi East 15.0 mph - N/A   Overcast
12:24 AM 15.8 °F 0.9 °F - N/A% 29.67 in 0.6 mi East 15.0 mph - N/A Snow Light Snow
12:29 AM 17.6 °F 3.2 °F - N/A% 29.67 in 0.6 mi East 15.0 mph - N/A Snow Light Snow
12:37 AM 17.6 °F 3.2 °F - N/A% 29.67 in 0.6 mi ENE 15.0 mph - N/A   Overcast
12:40 AM 17.6 °F 3.2 °F - N/A% 29.67 in 1.0 mi ENE 15.0 mph - N/A   Overcast
12:43 AM 17.6 °F 3.7 °F - N/A% 29.67 in 1.1 mi ENE 13.8 mph - N/A   Overcast
12:50 AM 17.6 °F 3.2 °F - N/A% 29.67 in 1.1 mi ENE 15.0 mph - N/A   Overcast
12:51 AM 17.6 °F 3.2 °F - N/A% 29.67 in 1.1 mi ENE 15.0 mph - N/A   Overcast
12:52 AM 17.6 °F 3.2 °F - N/A% 29.67 in 1.2 mi ENE 15.0 mph - N/A   Overcast
1:00 AM 17.6 °F 1.7 °F - N/A% 29.81 in 1.2 mi East 18.4 mph - N/A   Overcast
1:11 AM 17.6 °F 1.7 °F - N/A% 29.66 in 1.0 mi East 18.4 mph - N/A   Overcast
1:22 AM 17.6 °F 2.2 °F - N/A% 29.66 in 1.0 mi East 17.3 mph - N/A   Overcast
1:25 AM 17.6 °F 2.7 °F - N/A% 29.66 in 0.6 mi East 16.1 mph - N/A   Overcast
1:28 AM 17.6 °F 2.7 °F - N/A% 29.66 in 0.6 mi East 16.1 mph - N/A   Overcast
1:48 AM 15.8 °F -1.1 °F - N/A% 29.66 in 1.0 mi East 19.6 mph - N/A   Clear
1:53 AM 15.8 °F -1.1 °F - N/A% 29.66 in 1.1 mi East 19.6 mph - N/A   Clear
2:00 AM 16 °F - - % 29.81 in 1 mi ENE 19.6 mph - -  
2:00 AM 15.8 °F -0.6 °F - N/A% 29.81 in 1.5 mi ENE 18.4 mph - N/A   Clear
2:08 AM 15.8 °F -0.6 °F - N/A% 29.66 in 1.6 mi ENE 18.4 mph - N/A   Mostly Cloudy
2:15 AM 15.8 °F -0.6 °F - N/A% 29.66 in 1.5 mi ENE 18.4 mph - N/A   Mostly Cloudy
2:16 AM 15.8 °F -0.2 °F - N/A% 29.66 in 1.5 mi ENE 17.3 mph - N/A   Partly Cloudy
2:35 AM 15.8 °F -0.2 °F - N/A% 29.66 in 1.5 mi ENE 17.3 mph - N/A   Clear
3:00 AM 15.8 °F 3.4 °F - N/A% 29.82 in 2.2 mi ENE 10.4 mph - N/A   Clear
3:39 AM 14.0 °F 2.9 °F - N/A% 29.67 in 3.0 mi NE 8.1 mph - N/A   Clear
4:00 AM 15.8 °F 4.2 °F - N/A% 29.82 in 3.0 mi NNE 9.2 mph - N/A   Clear
4:31 AM 15.8 °F 6.1 °F - N/A% 29.67 in 3.5 mi NE 6.9 mph - N/A   Clear
5:00 AM 14 °F - - % 29.83 in 3 mi North 10.4 mph - -  
5:00 AM 14.0 °F 0.5 °F - N/A% 29.83 in 3.5 mi North 11.5 mph - N/A   Clear
6:00 AM 12.2 °F -4.8 °F - N/A% 29.85 in 3.5 mi North 17.3 mph - N/A   Clear
7:00 AM 12.2 °F -1.0 °F - N/A% 29.88 in 3.5 mi NNW 10.4 mph - N/A   Clear
8:00 AM 13 °F - - % 29.89 in 3 mi NW 12.7 mph - -  
8:00 AM 12.2 °F -2.5 °F - N/A% 29.89 in 3.5 mi NW 12.7 mph - N/A   Scattered Clouds
9:00 AM 14.0 °F 1.2 °F - N/A% 29.91 in 3.5 mi NNW 10.4 mph - N/A   Mostly Cloudy
9:41 AM 12.2 °F -2.5 °F - N/A% 29.76 in 7.0 mi NW 12.7 mph - N/A   Mostly Cloudy
9:42 AM 12.2 °F -2.5 °F - N/A% 29.76 in 5.0 mi NNW 12.7 mph - N/A   Mostly Cloudy
10:00 AM 14.0 °F 1.2 °F - N/A% 29.93 in 2.4 mi WNW 10.4 mph - N/A   Overcast
10:07 AM 14.0 °F 0.5 °F - N/A% 29.77 in 0.6 mi NW 11.5 mph - N/A   Overcast
10:12 AM 14.0 °F 0.5 °F - N/A% 29.77 in 0.6 mi NW 11.5 mph - N/A   Overcast
10:28 AM 14.0 °F 2.0 °F - N/A% 29.77 in 1.0 mi NW 9.2 mph - N/A   Overcast
10:32 AM 14.0 °F 1.2 °F - N/A% 29.77 in 3.0 mi NW 10.4 mph - N/A   Clear
10:38 AM 14.0 °F 2.0 °F - N/A% 29.77 in 3.0 mi WNW 9.2 mph - N/A   Clear
10:42 AM 14.0 °F 2.9 °F - N/A% 29.77 in 1.4 mi WNW 8.1 mph - N/A   Clear
10:44 AM 14.0 °F 1.2 °F - N/A% 29.77 in 1.0 mi WNW 10.4 mph - N/A   Clear
10:46 AM 14.0 °F -0.2 °F - N/A% 29.77 in 0.6 mi WNW 12.7 mph - N/A   Clear
10:58 AM 14.0 °F 0.5 °F - N/A% 29.77 in 0.5 mi NW 11.5 mph - N/A   Clear
10:59 AM 14.0 °F 0.5 °F - N/A% 29.77 in 0.4 mi NW 11.5 mph - N/A   Clear
11:00 AM 13 °F - - % 29.94 in 0 mi NW 11.5 mph - -  
11:00 AM 12.2 °F -1.8 °F - N/A% 29.94 in 0.4 mi NW 11.5 mph - N/A   Clear
11:21 AM 14.0 °F -2.5 °F - N/A% 29.78 in 0.8 mi NW 17.3 mph - N/A   Overcast
11:23 AM 14.0 °F -2.0 °F - N/A% 29.78 in 1.5 mi NW 16.1 mph - N/A   Overcast
11:30 AM 14.0 °F -2.0 °F - N/A% 29.78 in 1.2 mi NW 16.1 mph - N/A   Mostly Cloudy
11:32 AM 14.0 °F -2.0 °F - N/A% 29.78 in 0.8 mi NW 16.1 mph - N/A   Clear
11:33 AM 14.0 °F -2.0 °F - N/A% 29.78 in 0.6 mi NW 16.1 mph - N/A   Clear
11:35 AM 14.0 °F -1.4 °F - N/A% 29.78 in 0.4 mi NW 15.0 mph - N/A   Clear
11:47 AM 14.0 °F -1.4 °F - N/A% 29.78 in 0.2 mi NW 15.0 mph - N/A   Clear
11:57 AM 14.0 °F -2.0 °F - N/A% 29.78 in 0.2 mi NW 16.1 mph - N/A   Partly Cloudy
12:00 PM 14.0 °F -2.5 °F - N/A% 29.94 in 0.4 mi NW 17.3 mph - N/A   Partly Cloudy
12:06 PM 14.0 °F -1.4 °F - N/A% 29.78 in 2.5 mi WNW 15.0 mph - N/A   Mostly Cloudy
12:16 PM 14.0 °F -1.4 °F - N/A% 29.78 in 9.0 mi NW 15.0 mph - N/A   Mostly Cloudy
12:30 PM 15.8 °F 0.3 °F - N/A% 29.79 in 9.0 mi NW 16.1 mph - N/A   Overcast
12:51 PM 15.8 °F 0.9 °F - N/A% 29.79 in 9.0 mi WNW 15.0 mph - N/A   Scattered Clouds
12:57 PM 15.8 °F 2.1 °F - N/A% 29.79 in 9.0 mi WNW 12.7 mph - N/A   Mostly Cloudy
1:00 PM 15.8 °F 1.4 °F - N/A% 29.95 in 9.0 mi WNW 13.8 mph - N/A   Mostly Cloudy
2:00 PM 18 °F - - % 29.96 in 9 mi West 11.5 mph - -   Overcast
2:00 PM 17.6 °F 5.0 °F - N/A% 29.96 in 9.0 mi West 11.5 mph - N/A   Overcast
2:01 PM 17.6 °F 5.0 °F - N/A% 29.80 in 9.0 mi West 11.5 mph - N/A   Overcast
2:16 PM 17.6 °F 5.7 °F - N/A% 29.80 in 9.0 mi West 10.4 mph - N/A   Overcast
2:49 PM 19.4 °F 7.9 °F - N/A% 29.81 in 9.0 mi West 10.4 mph - N/A   Overcast
2:52 PM 19.4 °F 7.2 °F - N/A% 29.81 in 9.0 mi West 11.5 mph - N/A   Overcast
3:00 PM 19.4 °F 7.2 °F - N/A% 29.96 in 9.0 mi West 11.5 mph - N/A   Overcast
3:07 PM 19.4 °F 7.9 °F - N/A% 29.81 in 3.0 mi West 10.4 mph - N/A   Clear
3:09 PM 19.4 °F 7.2 °F - N/A% 29.81 in 1.4 mi West 11.5 mph - N/A   Clear
3:10 PM 19.4 °F 7.2 °F - N/A% 29.81 in 1.0 mi West 11.5 mph - N/A   Clear
3:11 PM 19.4 °F 7.2 °F - N/A% 29.81 in 0.6 mi West 11.5 mph - N/A   Clear
3:12 PM 19.4 °F 7.2 °F - N/A% 29.81 in 0.4 mi West 11.5 mph - N/A   Clear
3:15 PM 19.4 °F 6.6 °F - N/A% 29.81 in 0.1 mi West 12.7 mph - N/A   Clear
3:25 PM 19.4 °F 6.6 °F - N/A% 29.81 in 0.1 mi West 12.7 mph - N/A   Clear
4:00 PM 19.4 °F 4.5 °F - N/A% 29.96 in 0.1 mi West 17.3 mph - N/A   Clear
4:07 PM 19.4 °F 6.0 °F - N/A% 29.81 in 0.6 mi West 13.8 mph - N/A   Overcast
4:09 PM 19.4 °F 6.6 °F - N/A% 29.81 in 1.0 mi West 12.7 mph - N/A   Overcast
4:15 PM 19.4 °F 6.6 °F - N/A% 29.81 in 1.0 mi West 12.7 mph - N/A   Overcast
4:24 PM 19.4 °F 7.9 °F - N/A% 29.81 in 0.6 mi West 10.4 mph - N/A   Overcast
4:28 PM 19.4 °F 7.9 °F - N/A% 29.81 in 0.6 mi West 10.4 mph - N/A   Overcast
4:39 PM 19.4 °F 8.6 °F - N/A% 29.81 in 1.0 mi West 9.2 mph - N/A   Overcast
4:44 PM 19.4 °F 8.6 °F - N/A% 29.81 in 1.1 mi West 9.2 mph - N/A   Overcast
4:48 PM 19.4 °F 9.5 °F - N/A% 29.81 in 1.4 mi West 8.1 mph - N/A   Overcast
4:51 PM 19.4 °F 9.5 °F - N/A% 29.81 in 3.0 mi West 8.1 mph - N/A   Overcast
4:57 PM 19.4 °F 9.5 °F - N/A% 29.81 in 7.0 mi West 8.1 mph - N/A   Overcast
5:00 PM 19 °F - - % 29.97 in 9 mi West 8.1 mph - -   Overcast
5:00 PM 19.4 °F 9.5 °F - N/A% 29.97 in 9.0 mi West 8.1 mph - N/A   Overcast
5:16 PM 19.4 °F 11.5 °F - N/A% 29.81 in 9.0 mi West 5.8 mph - N/A   Overcast
5:26 PM 19.4 °F 11.5 °F - N/A% 29.81 in 9.0 mi West 5.8 mph - N/A   Mostly Cloudy
5:40 PM 17.6 °F 8.2 °F - N/A% 29.81 in 9.0 mi West 6.9 mph - N/A   Overcast
6:00 PM 17.6 °F 9.3 °F - N/A% 29.97 in 7.0 mi West 5.8 mph - N/A   Overcast
6:08 PM 17.6 °F 8.2 °F - N/A% 29.81 in 3.5 mi West 6.9 mph - N/A Snow Light Snow
6:09 PM 17.6 °F 8.2 °F - N/A% 29.81 in 3.0 mi West 6.9 mph - N/A Snow Light Snow
6:10 PM 17.6 °F 8.2 °F - N/A% 29.81 in 2.8 mi West 6.9 mph - N/A Snow Light Snow
6:34 PM 17.6 °F 6.4 °F - N/A% 29.81 in 4.0 mi West 9.2 mph - N/A   Overcast
6:41 PM 17.6 °F 7.3 °F - N/A% 29.81 in 5.0 mi West 8.1 mph - N/A   Overcast
7:00 PM 17.6 °F 6.4 °F - N/A% 29.97 in 8.0 mi West 9.2 mph - N/A   Mostly Cloudy
7:05 PM 17.6 °F 7.3 °F - N/A% 29.81 in 9.0 mi WSW 8.1 mph - N/A   Mostly Cloudy
7:23 PM 17.6 °F 8.2 °F - N/A% 29.81 in 9.0 mi WSW 6.9 mph - N/A   Scattered Clouds
7:58 PM 15.8 °F 5.1 °F - N/A% 29.81 in 9.0 mi West 8.1 mph - N/A   Overcast
8:00 PM 16 °F - - % 29.97 in 9 mi WSW 8.1 mph - -   Overcast
8:00 PM 15.8 °F 5.1 °F - N/A% 29.97 in 9.0 mi WSW 8.1 mph - N/A   Overcast
8:10 PM 15.8 °F 6.1 °F - N/A% 29.81 in 9.0 mi West 6.9 mph - N/A   Overcast
8:26 PM 17.6 °F 10.7 °F - N/A% 29.81 in 9.0 mi WSW 4.6 mph - N/A   Overcast
8:38 PM 17.6 °F 10.7 °F - N/A% 29.81 in 9.0 mi SSW 4.6 mph - N/A   Overcast
8:44 PM 17.6 °F 10.7 °F - N/A% 29.80 in 9.0 mi South 4.6 mph - N/A   Overcast
8:59 PM 15.8 °F 10.2 °F - N/A% 29.80 in 9.0 mi SW 3.5 mph - N/A   Mostly Cloudy
9:06 PM 15.8 °F 7.2 °F - N/A% 29.80 in 9.0 mi WSW 5.8 mph - N/A   Overcast
9:20 PM 15.8 °F 8.6 °F - N/A% 29.80 in 9.0 mi SW 4.6 mph - N/A   Overcast
9:31 PM 15.8 °F 7.2 °F - N/A% 29.80 in 9.0 mi SW 5.8 mph - N/A   Overcast
9:32 PM 15.8 °F 7.2 °F - N/A% 29.79 in 9.0 mi SW 5.8 mph - N/A   Overcast
9:33 PM 15.8 °F 8.6 °F - N/A% 29.79 in 9.0 mi SW 4.6 mph - N/A   Overcast
9:40 PM 17.6 °F 9.3 °F - N/A% 29.79 in 3.0 mi SSW 5.8 mph - N/A   Overcast
9:42 PM 17.6 °F 9.3 °F - N/A% 29.79 in 1.4 mi SW 5.8 mph - N/A   Overcast
9:44 PM 17.6 °F 9.3 °F - N/A% 29.79 in 1.0 mi SSW 5.8 mph - N/A   Overcast
9:45 PM 17.6 °F 8.2 °F - N/A% 29.79 in 0.6 mi SSW 6.9 mph - N/A   Overcast
9:46 PM 17.6 °F 8.2 °F - N/A% 29.79 in 0.6 mi SSW 6.9 mph - N/A   Overcast
9:49 PM 17.6 °F 8.2 °F - N/A% 29.79 in 0.4 mi SSW 6.9 mph - N/A   Overcast
10:00 PM 15.8 °F 8.6 °F - N/A% 29.95 in 0.2 mi SSW 4.6 mph - N/A   Overcast
10:15 PM 15.8 °F 6.1 °F - N/A% 29.79 in 0.4 mi SW 6.9 mph - N/A   Mostly Cloudy
10:16 PM 15.8 °F 6.1 °F - N/A% 29.79 in 0.8 mi SW 6.9 mph - N/A   Mostly Cloudy
10:18 PM 15.8 °F 7.2 °F - N/A% 29.79 in 1.5 mi SSW 5.8 mph - N/A   Mostly Cloudy
10:28 PM 15.8 °F 6.1 °F - N/A% 29.79 in 3.0 mi SSW 6.9 mph - N/A   Overcast
10:29 PM 15.8 °F 7.2 °F - N/A% 29.79 in 8.0 mi SSW 5.8 mph - N/A   Overcast
10:42 PM 15.8 °F 6.1 °F - N/A% 29.78 in 9.0 mi SSW 6.9 mph - N/A   Overcast
10:45 PM 15.8 °F 6.1 °F - N/A% 29.78 in 9.0 mi SSW 6.9 mph - N/A   Mostly Cloudy
10:52 PM 15.8 °F 6.1 °F - N/A% 29.78 in 9.0 mi SW 6.9 mph - N/A   Scattered Clouds
11:00 PM 15 °F - - % 29.94 in 9 mi SW 6.9 mph - -  
11:00 PM 15.8 °F 6.1 °F - N/A% 29.94 in 9.0 mi SSW 6.9 mph - N/A   Scattered Clouds
11:21 PM 15.8 °F 8.6 °F - N/A% 29.78 in 9.0 mi SSW 4.6 mph - N/A   Overcast
11:53 PM 15.8 °F 7.2 °F - N/A% 29.78 in 6.0 mi West 5.8 mph - N/A   Light Freezing Drizzle
11:57 PM 15.8 °F 7.2 °F - N/A% 29.78 in 4.0 mi West 5.8 mph - N/A   Overcast